Regional Weather Roundup
Issued by NWS

Home | Current Version | Previous Version | Text Only | Print | Product List | Glossary Off
Versions: 1 2 3 4 5 6 7 8 9 10 11 12 13 14 15 16 17 18 19 20 21 22 23 24 25 26 27 28 29 30 31 32 33 34 35 36 37 38 39 40 41 42 43 44 45 46 47 48 49 50

003
ASUS45 KTFX 281210
RWRMT
MONTANA REGIONAL WEATHER ROUNDUP
NATIONAL WEATHER SERVICE GREAT FALLS MT
600 AM MDT SAT MAY 28 2016

NOTE: "FAIR" INDICATES FEW OR NO CLOUDS BELOW 12000 FEET WITH NO
SIGNIFICANT WEATHER AND/OR OBSTRUCTIONS TO VISIBILITY.

MTZ001>007-043-281300-
WEST OF THE DIVIDE

CITY           SKY/WX    TMP DP  RH WIND       PRES   REMARKS
KALISPELL      PTCLDY    36  35  96 CALM      29.99S
MISSOULA       PTCLDY    37  33  85 CALM      30.05R
BUTTE          CLOUDY    34  31  88 E3        30.02S
MULLAN PASS    CLOUDY    33  28  81 VRB5      30.01R
ANACONDA         N/A     36  30  80 CALM      30.02R
DEER LODGE       N/A     34  32  93 CALM      30.04R
EUREKA           N/A     45  37  76 S5        29.98S
HAMILTON         N/A     39  34  81 S3        30.03R
LIBBY            N/A     36  36 100 CALM      30.02R
$$

MTZ008-052>055-281300-
SOUTHWEST MONTANA

CITY           SKY/WX    TMP DP  RH WIND       PRES   REMARKS
BOZEMAN        CLOUDY    42  38  85 NW5       30.00R
DILLON         CLOUDY    42  39  89 CALM      29.99S
W YELLOWSTONE  CLOUDY    37  36  93 CALM      30.04R
ENNIS          MOCLDY    36  34  93 CALM      30.06R
$$

MTZ009-010-012-014-046-048-049-054-281300-
EAST SLOPES AND CENTRAL MONTANA

CITY           SKY/WX    TMP DP  RH WIND       PRES   REMARKS
CUT BANK       PTCLDY    36  30  79 W7        29.92R WCI  30
GREAT FALLS    CLEAR     40  33  76 S10       29.95S
MALMSTROM AFB  CLEAR     39  35  87 S6        29.96R
HELENA         CLEAR     41  32  70 CALM      30.00R
CHOTEAU          N/A     39  32  75 S6        29.95R
$$

MTZ011-013-016-021-045-047-050-051-281300-
NORTH CENTRAL MONTANA

CITY           SKY/WX    TMP DP  RH WIND       PRES   REMARKS
HAVRE          CLOUDY    47  44  90 SW9       29.91R
LEWISTOWN      CLOUDY    48  42  80 W12       29.96R
N BAR RANCH    CLOUDY    46  41  81 NW8       29.97R
CHINOOK          N/A     50  50 100 CALM      29.90R
$$

MTZ017>020-022>027-061-062-281300-
NORTHEAST MONTANA

CITY           SKY/WX    TMP DP  RH WIND       PRES   REMARKS
GLASGOW        CLOUDY    53  51  93 SE12      29.85S FOG
JORDAN           N/A     52  51  97 W6        29.87S
SIDNEY         CLOUDY    56  54  93 NE7       29.87S
WOLF POINT     CLOUDY    56  53  90 E12       29.86S
PLENTYWOOD       N/A     52  52 100 E9        29.90S
POPLAR           N/A     54  54 100 E6        29.87S
$$

MTZ028>42-056>058-281300-
SOUTHCENTRAL AND SOUTHEAST MONTANA

CITY           SKY/WX    TMP DP  RH WIND       PRES   REMARKS
BAKER          CLOUDY    50  47  89 S3        29.88R
BILLINGS       CLOUDY    50  44  80 W8        29.95R
LIVINGSTON     CLOUDY    45  42  89 W7        29.98R
MILES CITY     CLOUDY    52  48  86 SW6       29.88R
FORSYTH          N/A     52  50  93 SW8       29.90R
$$

REGIONAL REPORTS...DAKOTAS

CITY           SKY/WX    TMP DP  RH WIND       PRES   REMARKS
WILLISTON      CLOUDY    55  51  86 E9        29.89S
MINOT          CLOUDY    56  53  90 N7        29.89R
DICKINSON      FOG       48  48 100 NE8       29.85S VSB<1/4
BEACH          CLOUDY    48  48 100 CALM      29.89S
CROSBY         CLOUDY    50  50 100 E10       29.93S FOG
WATFORD CITY   CLOUDY    55  55 100 E8        29.88S
BISMARCK       CLOUDY    57  55  93 NE9       29.87R FOG
GRAND FORKS    CLOUDY    62  56  80 CALM      29.83R
FARGO          CLOUDY    61  57  87 NE7       29.80F
BUFFALO SD       N/A     49  45  86 W5        29.81S
RAPID CITY     CLEAR     45  43  93 NW7       29.88R
$$

REGIONAL REPORTS...WYOMING/IDAHO/WASHINGTON

CITY           SKY/WX    TMP DP  RH WIND       PRES   REMARKS
GILLETTE       MOCLDY    45  44  97 S5        29.91R
SHERIDAN       CLOUDY    48  43  82 NW12      29.94R
BUFFALO WY     CLOUDY    47  42  83 N10       29.95R
CODY           CLOUDY    43  43 100 CALM      29.98R
YELLOWSTONE LA   N/A     33  29  85 CALM      30.07R
IDAHO FALLS    CLEAR     44  30  57 S10       30.01R
SALMON         CLOUDY    43  36  75 CALM      30.00S
BOISE          MOCLDY    44  31  60 CALM      30.05R
SPOKANE        MOCLDY    42  33  70 S7        30.01R
$$

REGIONAL REPORTS...ALBERTA

CITY           SKY/WX    TMP DP  RH WIND       PRES   REMARKS
EDMONTON       MOCLDY    45  41  87 W3        29.83S
CALGARY        PTCLDY    37  36  93 CALM      29.88R
LETHBRIDGE     MOCLDY    43  36  75 W7        29.90R
MEDICINE HAT   MOCLDY    46  39  76 SW10      29.86R
WATERTON GATE    N/A     43  28  56 SW13G18     N/A
MILK RIVER       N/A     34  30  86 W8          N/A  WCI  27
$$

REGIONAL REPORTS...SASKATCHEWAN

CITY           SKY/WX    TMP DP  RH WIND       PRES   REMARKS
SWIFT CURRENT  LGT RAIN  52  52 100 SE13      29.84S FOG
REGINA         CLOUDY    50  48  93 E14       29.93S
SASKATOON      CLOUDY    50  50 100 SE17G25   29.92R FOG
CYPRESS HILLS    N/A     41  36  81 W3          N/A
VAL MARIE        N/A     54  50  87 SE2         N/A
ASSINIBOIA       N/A     48  48 100 W3          N/A
$$




USA.gov is the U.S. government's official web portal to all federal, state and local government web resources and services.